Location: Boissi�res
(45.2500°N, 2.3667°E)
Time: 20:04:50
(UTC+00:00)

Tiangong - Pass Details

Date: 30 September 2021
Orbit: 382 x 385 km, 41.5° (Epoch: 18 October)

Event Time Altitude Azimuth Distance (km) Brightness Sun altitude
Exits shadow 04:45:26 18° 235° (SW) 1,035 2.7 -11.7°
Maximum altitude 04:47:25 38° 174° (S) 594 2.0 -11.4°
Drops below altitude 10° 04:50:23 10° 104° (ESE) 1,396 5.1 -10.9°
Sets 04:52:31 0° 96° (E) 2,249 6.8 -10.5°
